Location: Peterborough
(44.3091°N, 78.3197°W)
Time: 23:54:59
(UTC-04:00)

S-56A Canister/Altair - Pass Details

Date: 26 March 2023
Orbit: 639 x 2492 km, 38.9° (Epoch: 02 June)

Event Time Altitude Azimuth Distance (km) Brightness Sun altitude
Rises 21:19:51 0° 254° (WSW) 5,136 12.5 -19.3°
Reaches altitude 10° 21:22:53 10° 252° (WSW) 4,352 12.0 -19.8°
Maximum altitude 21:35:23 70° 173° (S) 2,481 9.8 -21.8°
Enters shadow 21:44:45 29° 99° (E) 3,826 10.5 -23.3°
